Find OneWeb SL0595

NORAD ID: 54661 Int'l Des: 2022-166 Owner: ONEWEBN Country: UK Constellation: oneweb operational
LEOCIRCULARPOLARONEWEB_TYPE

当前视图

正在加载3D地球...

About OneWeb SL0595

OneWeb SL0595 (NORAD 54661) is a oneweb constellation satellite launched Dec 8, 2022 by ONEWEBN of UK. It operates in LEO, CIRCULAR, POLAR, ONEWEB_TYPE orbit with a mass of 148.00 kg.

关于 OneWeb SL0595

正在加载描述...

即将过境

Passes for default location (London). Set your location on the main map for personalized predictions.

高度历史

Loading altitude history...

两行轨道根数

1 54661U 22166V 26166.51467485 -.00000037 00000-0 -12134-3 0 9996
2 54661 87.9262 244.3055 0002076 105.4360 254.7003 13.21827386171310
Epoch: Jun 15, 2026 • Age: 4 hours

当前状态

高度 1186.7 km
速度 7.26 km/s
星下点 -21.36°S, 101.35°E
发射日期 Dec 8, 2022
运行时间 3.5 years
类型 internet

技术详情

分类 Payload
质量 148.00 kg
干质量 140.00 kg
总质量 148.00 kg
长度 1.30 m
直径 1.00 m
跨度 5.00 m
形状 Trapezoid+2 pan
制造商 ONEWUS
平台类型 ARROW
阶段状态 In Orbit
所有者/国家 ONEWEBN/UK

Most Searched